Regional Weather Roundup
Issued by NWS Charleston, SC

Current Version | Previous Version | Graphics & Text | Print | Product List | Glossary On
Versions: 1 2 3 4 5 6 7 8 9 10 11 12 13 14 15 16 17 18 19 20 21 22 23 24 25 26 27 28 29 30 31 32 33 34 35 36 37 38 39 40 41 42 43 44 45 46 47 48 49 50
000
ASUS42 KCHS 030727
RWRCHS

REGIONAL WEATHER ROUNDUP
NATIONAL WEATHER SERVICE CHARLESTON SC
200 AM EST SAT DEC 03 2016

NOTE: "FAIR" INDICATES FEW OR NO CLOUDS BELOW 12,000 FEET WITH NO
SIGNIFICANT WEATHER AND/OR OBSTRUCTIONS TO VISIBILITY.

NOT ALL STATIONS ARE QUALITY CONTROLLED. USE DATA WITH CAUTION...
ESPECIALLY DEWPOINT OBSERVATIONS.

SCZ027-030-031-034>040-042>050-030800-
...SOUTHEAST SOUTH CAROLINA...

CITY           SKY/WX    TMP DP  RH WIND       PRES   REMARKS
N CHARLESTON   PTCLDY    41  37  86 CALM      30.22S
WATERFRONT PRK   N/A     49  41  73 VRB3      30.21S
MOUNT PLEASANT FAIR      37  37 100 CALM      30.22F
JOHNS ISLAND   FAIR      41  37  87 CALM      30.21F
PINOPOLIS        N/A     48  43  81 W6        30.14R
MONCKS CORNER  FAIR      37  36  93 CALM      30.21F
SUMMERVILLE    FAIR      37  37 100 CALM      30.22F
BEAUFORT MCAS  CLOUDY    41  38  89 CALM      30.21F
BEAUFORT ARPT  FAIR      45  43  93 CALM      30.20F
HILTON HEAD IS PTCLDY    41  39  93 CALM      30.21F
WALTERBORO     MOSUNNY   37 N/A N/A CALM      30.21F
ALLENDALE      FAIR      39  37  93 CALM      30.20F

...SOUTHERN MIDLANDS AND PEE DEE...

CITY           SKY/WX    TMP DP  RH WIND       PRES   REMARKS
GEORGETOWN     NOT AVBL
KINGSTREE      FAIR      34  32  93 CALM      30.22R
ORANGEBURG     PTCLDY    38  37  97 CALM      30.21F
BARNWELL       NOT AVBL
AIKEN          NOT AVBL
MANNING        NOT AVBL
COLUMBIA       PTCLDY    39  35  86 CALM      30.20F
SUMTER         PTCLDY    46  34  63 NW7       30.19S
FLORENCE       CLOUDY    44  35  70 NW7       30.21S
MYRTLE BEACH   PTCLDY    43  36  75 W6        30.22R
N MYRTLE BEACH CLEAR     43  38  82 W3        30.20R

$$

GAZ063-065-086>088-099>101-113>116-118-119-134>141-150-030800-
...SOUTHEAST GEORGIA...

CITY           SKY/WX    TMP DP  RH WIND       PRES   REMARKS
SAVANNAH ARPT  PTCLDY    42  39  89 W3        30.22F
HUNTER AAF     PTCLDY    42  42  99 W3        30.19F
FORT STEWART   PTCLDY    41  38  89 CALM      30.20R
STATESBORO     PTCLDY    40  40 100 CALM      30.21S
SYLVANIA       MOSUNNY  N/A N/A N/A CALM      30.22S
CLAXTON        FAIR     N/A N/A N/A CALM      30.23R

...CSRA...CENTRAL AND FAR SOUTHEAST GEORGIA...

CITY           SKY/WX    TMP DP  RH WIND       PRES   REMARKS
THOMSON        PTCLDY    41  38  89 CALM      30.25S
AUGUSTA-BUSH   PTCLDY    37  34  89 CALM      30.21
AUGUSTA-DANIEL MOCLDY    47  30  51 CALM      30.21
SWAINSBORO     FAIR      37  36  93 CALM      30.21F
VIDALIA        MOCLDY    45  43  93 CALM      30.22S
EASTMAN        FAIR      41  32  71 CALM      30.26R
HAZLEHURST     FAIR      46  43  90 CALM      30.22R
ALMA           CLOUDY    47  38  71 CALM      30.22S
WAYCROSS       PTCLDY    50  41  71 N3        30.21F
JESUP          FAIR      46  43  87 N5        30.23R
BAXLEY         FAIR      45  43  93 CALM      30.22S
BRUNSWICK      CLOUDY    46  45  93 CALM      30.21F
SAINT SIMONS   PTCLDY    51  43  74 N3        30.20F

$$

SCZ027-028-034-036>038-045-046-048>050-GAZ119-141-030800-
...LAKE AND SUPPLEMENTAL COASTAL OBSERVATIONS...

STATION/POSITION TIME  TEMP    WIND        PRES    WAVE   SWELL
                       AIR SEA DIR/SP/G            HT/PER HT/PER/DIR
                 (UTC) (F)     (DEG/KT/KT) (MB)    (FT/S) (FT/S/D)
WINYAH BAY       0645   46     290/  4     1023.0R
LAKE MURRAY      0720   46        CALM     1022.4
ACE BASIN NERRS  0645   42        CALM     1023.0S
FORT PULASKI     0700   51 63  300/  2/  3 1023.3
SAPELO ISLAND    0630   49      30/  3     1023.0S

$$

ANZ835-935-AMZ111-154-330-350-352-354-370-450-454-472-030800-
...C-MAN AND BUOY OBSERVATIONS...

STATION/POSITION TIME  TEMP    WIND        PRES    WAVE   SWELL
                       AIR SEA DIR/SP/G            HT/PER HT/PER/DIR
                 (UTC) (F)     (DEG/KT/KT) (MB)    (FT/S) (FT/S/D)
BUOY 41004       0650   62 74  330/ 14/ 17 1022.2R   3/ 9   2/110/ 9
BUOY 41008       0650   61 64  360/ 12/ 14 1022.6R   3/ 9   2/130/ 9
FOLLY BEACH CMAN 0700   47     310/  3/  4 1023.3F
CAPERS NEARSHORE 0608   56 62  300/  8/ 12 1023.0R
FRIPP NEARSHORE  0708   56 63  340/  6/  8 1022.3F


STATION/POSITION TIME  TEMP    WIND        PRES    WAVE   SWELL
                       AIR SEA DIR/SP/G            HT/PER HT/PER/DIR
                 (UTC) (F)     (DEG/KT/KT) (MB)    (FT/S) (FT/S/D)
5E ST. MARYS GA  0700      66                N/A     3/ 4
FRYING PAN BUOY  0710   61 74  310/ 17/ 23 1021.8
BUOY 41025       0650   56 74  330/ 23/ 29 1019.2R   4/ 4   2/ 60/ 8
CAPE LOOKOUT NC  0700   49     340/ 18/ 21 1020.8R
BUOY 41002       0650   65 74  340/ 14/ 17 1018.6F   4/ 6   2/150/ 8
BUOY 41010       NOT AVBL
ST AUGUSTINE FL  0700   62 66   10/ 18/ 19 1022.9S


$$




USA.gov is the U.S. government's official web portal to all federal, state and local government web resources and services.